Location: Foligno
(42.9600°N, 12.7050°E)
Time: 08:39:00
(UTC+02:00)

ISS - Pass Details

Date: 21 July 2018
Orbit: 402 x 408 km, 51.6° (Epoch: 16 July)

Event Time Altitude Azimuth Distance (km) Brightness Sun altitude
Rises 02:59:10 0° 305° (NW) 2,329 0.1 -22.2°
Reaches altitude 10° 03:01:23 10° 316° (NW) 1,468 -0.8 -22.0°
Maximum altitude 03:04:24 33° 22° (NNE) 711 -2.0 -21.8°
Drops below altitude 10° 03:07:25 10° 89° (E) 1,465 -0.7 -21.5°
Sets 03:09:38 0° 99° (E) 2,324 0.3 -21.3°
